Terug naar catalogus

STARLINK-4295

ActiefCommunicatieVLEO
NORAD 52996·PAYLOAD·🇺🇸 United States

Gelanceerd Jul 7, 2022 vanaf Cape Canaveral Space Force Station

Loading…

Volgende Passages (komende 24 uur)

TLE

VersSource: CelesTrak SupGP

Epoch: Sep 15, 2026, 02:10 UTC

1 52996C 22076L   26258.09076389  .00042931  00000+0  12684-2 0  2582
2 52996  53.1574 309.3494 0001114  78.7342 283.2655 15.34368830    11

Volg STARLINK-4295 in realtime met AllMySat

Download on the App Store